Regional Weather Roundup
Issued by NWS Huntsville, AL

Home | Current Version | Previous Version | Text Only | Print | Product List | Glossary On
Versions: 1 2 3 4 5 6 7 8 9 10 11 12 13 14 15 16 17 18 19 20 21 22 23 24 25 26 27
000
ASUS44 KHUN 251110
RWRHUN

WEATHER ROUNDUP FOR THE TENNESSEE VALLEY
NATIONAL WEATHER SERVICE HUNTSVILLE AL
600 AM CDT THU AUG 25 2016

ALZ001>004-251200-
NORTHWEST ALABAMA

CITY           SKY/WX    TMP DP  RH WIND       PRES   REMARKS
COURTLAND HCN    N/A     73 N/A N/A CALM        N/A
RUSSELLVILLE     N/A     72 N/A N/A MISG        N/A
SHOALS AIRPORT CLEAR     73  71  93 CALM      30.16R
SHOALS TVA RES   N/A     73 N/A N/A MISG        N/A
$$

ALZ005>007-016-251200-
NORTH CENTRAL ALABAMA

CITY           SKY/WX    TMP DP  RH WIND       PRES   REMARKS
CULLMAN AG STN   N/A     72 N/A N/A CALM        N/A
DECATUR AP     CLEAR     74  72  93 E5        30.16R
HUNTSVILLE AP  PTCLDY    75  72  90 E5        30.16R
MERIDIANVILLE  CLEAR     72  66  83 CALM      30.17S
REDSTONE ARSN  CLEAR     75  72  91 S3        30.16R
VINEMONT AP    FAIR      73  71  94 CALM      30.20R
$$

ALZ008>010-251200-
NORTHEAST ALABAMA

CITY           SKY/WX    TMP DP  RH WIND       PRES   REMARKS
ALBERTVILLE    PTCLDY    72  72 100 E3        30.19R
FORT PAYNE     CLEAR     70  66  88 CALM      30.19R
SCOTTSBORO AP  MOCLDY    73  73 100 CALM      30.19R
SCOTTSBORO HCN   N/A     72 N/A N/A MISG        N/A
VALLEY HEAD      N/A     73 N/A N/A MISG        N/A
$$

TNZ076-096-097-251200-
SOUTHEASTERN MIDDLE TENNESSEE

CITY           SKY/WX    TMP DP  RH WIND       PRES   REMARKS
TULLAHOMA      PTCLDY    72  70  94 CALM      30.20R
WINCHESTER     CLEAR     72  70  94 SE5       30.19S
$$

...SURROUNDING SITES...

CITY           SKY/WX    TMP DP  RH WIND       PRES   REMARKS
ATLANTA        PTCLDY    72  70  93 E6        30.20R
ANNISTON       CLOUDY    75  70  84 NE6       30.18R
BIRMINGHAM     MOCLDY    77  73  87 NE3       30.19R
CHATTANOOGA    PTCLDY    73  70  90 CALM      30.19S
DALTON         MOCLDY    70  70 100 CALM      30.20S
GADSDEN        MOCLDY    74  72  93 NE3       30.18R
GOLDEN TRNGL   CLEAR     77  70  78 SE6       30.12R
HALEYVILLE     FAIR      72  71  97 CALM      30.19R FOG
JACKSON TN     CLEAR     74  73  97 CALM      30.12R
MEMPHIS        PTCLDY    80  74  81 CALM      30.11R
NASHVILLE      PTCLDY    74  70  87 CALM      30.15R
OXFORD MS      FAIR      73  72  94 CALM      30.13S
ROME           MOCLDY    71  70  96 CALM      30.19R
SAVANNAH       MOCLDY    75  73  94 S3        30.13R
TUPELO         PTCLDY    76  72  87 CALM      30.12R
TUSCALOOSA     CLEAR     75  75 100 CALM      30.14R
$$

...GULF COAST WEATHER...

CITY           SKY/WX    TMP DP  RH WIND       PRES   REMARKS
GULFPORT       CLEAR     77  76  96 N3        30.08R
PASCAGOULA     PTCLDY    77  77 100 CALM      30.09R FOG
MOBILE         MOCLDY    76  75  97 NE3       30.11R FOG
GULF SHORES    SUNNY     75  75 100 N5        30.09R
PENSACOLA      PTCLDY    78  75  90 NE6       30.09R
DESTIN         CLEAR     80  75  84 E6        30.10R
PANAMA CITY    CLEAR     75  72  88 NE6       30.11R
APPALACHICOLA  CLEAR     74  74 100 NE7       30.09R
$$





USA.gov is the U.S. government's official web portal to all federal, state and local government web resources and services.